Location: Wapato
(46.4478°N, 120.4212°W)
Time: 23:48:41
(UTC+00:00)

A-11 Canister half - Visible Passes

Search period start: 11 May 2026 00:00
Search period end: 21 May 2026 00:00
Orbit: 1523 x 1685 km, 47.3° (Epoch: 11 May)

Date Brightness Start Highest point End Pass type
(mag) Time Alt. Az. Time Alt. Az. Time Alt. Az.
11 May 9.1 05:28:38 10° W 05:38:33 86° N 05:48:44 10° E visible
11 May 9.0 07:33:47 10° WNW 07:43:38 65° SSW 07:48:53 32° SE visible
11 May 9.9 09:39:39 10° W 09:47:03 26° SW 09:47:03 26° SW visible
12 May 9.2 05:06:45 10° W 05:16:39 86° N 05:26:50 10° E visible
12 May 9.0 07:11:55 10° WNW 07:21:47 67° SSW 07:27:05 32° SE visible
12 May 9.8 09:17:40 10° WNW 09:25:17 28° SW 09:25:17 28° SW visible
13 May 9.2 04:44:54 10° W 04:54:45 86° N 05:04:55 10° E visible
13 May 9.0 06:50:04 10° WNW 06:59:55 69° SSW 07:05:31 31° SE visible
13 May 9.8 08:55:42 10° WNW 09:03:43 29° SW 09:03:43 29° SW visible
14 May 9.2 04:23:02 10° W 04:32:51 85° N 04:43:01 10° E visible
14 May 9.1 06:28:12 10° WNW 06:38:03 71° SSW 06:44:05 28° SE visible
14 May 9.7 08:33:45 10° WNW 08:42:05 31° SW 08:42:19 31° SW visible
15 May 9.2 04:01:10 10° W 04:10:58 85° N 04:21:05 10° E visible
15 May 9.1 06:06:20 10° WNW 06:16:11 73° SSW 06:22:46 25° SE visible
15 May 9.7 08:11:48 10° WNW 08:20:16 33° SW 08:21:00 32° SW visible
16 May 9.1 05:44:28 10° WNW 05:54:18 75° SSW 06:01:32 22° ESE visible
16 May 9.7 07:49:54 10° WNW 07:58:28 34° SW 07:59:47 33° SSW visible
17 May 9.1 05:22:37 10° WNW 05:32:26 76° SSW 05:40:22 19° ESE visible
17 May 9.6 07:27:58 10° WNW 07:36:39 36° SW 07:38:37 33° SSW visible
18 May 9.1 05:00:45 10° WNW 05:10:33 78° SSW 05:19:16 15° ESE visible
18 May 9.6 07:06:03 10° WNW 07:14:50 37° SW 07:17:31 32° SSW visible
19 May 9.1 04:38:53 10° WNW 04:48:41 79° SSW 04:58:13 12° ESE visible
19 May 9.6 06:44:09 10° WNW 06:53:01 39° SW 06:56:28 31° S visible
20 May 9.2 04:17:02 10° WNW 04:26:49 81° SSW 04:36:53 10° ESE visible
20 May 9.6 06:22:15 10° WNW 06:31:12 41° SW 06:35:28 29° S visible
20 May 10.8 08:32:14 10° WSW 08:33:43 11° WSW 08:33:43 11° WSW visible
